Theta_e
308 311 309 310 310 312 312 312 310 309 307 306 306 307 307 307 307 309 314 313 314 312 314 319 317 319 317 319 319 317 318 319 321 323 322 319 316 331 340 354 351 351 349 344 343
305 310 311 309 309 311 312 311 311 309 307 306 306 306 307 307 311 316 318 316 316 316 315 317 316 315 315 322 322 317 316 320 320 322 321 317 317 319 350 354 353 350 347 344 343
302 306 311 310 308 309 309 310 309 308 307 306 306 306 307 307 316 319 324 323 317 321 319 318 317 317 318 321 321 321 322 320 322 320 320 318 317 319 352 357 353 351 347 344 342
303 302 309 310 308 307 307 308 308 307 306 305 305 307 307 314 315 323 323 316 320 320 319 316 316 318 317 320 318 322 320 323 323 323 319 317 316 317 326 333 351 347 346 343 341
305 304 304 311 309 307 306 307 307 307 306 306 307 307 310 320 320 320 320 318 317 318 316 314 318 316 318 315 315 318 319 321 322 319 315 315 318 320 326 337 350 347 345 343 341
308 305 304 306 310 308 307 306 306 307 307 307 307 306 317 318 318 321 322 320 319 317 315 315 318 315 317 316 313 314 315 319 318 318 315 316 317 327 327 335 348 345 343 343 341
309 307 306 305 309 309 307 306 307 306 307 306 306 313 318 315 319 323 321 316 315 314 318 318 320 320 316 315 313 314 315 313 314 314 314 314 316 326 327 333 349 348 346 346 345
309 308 306 307 305 312 308 307 307 307 307 311 310 317 315 317 319 318 317 316 315 315 319 321 320 317 314 314 313 316 314 314 314 316 317 315 313 326 336 346 349 348 346 344 342
309 309 307 309 307 309 312 308 306 308 312 313 314 319 324 324 322 322 321 318 317 317 317 318 317 314 314 313 311 312 317 316 315 315 317 315 327 329 344 345 345 343 342 342 340
310 310 309 307 312 307 312 312 312 315 319 316 318 321 321 327 326 325 323 320 319 318 316 316 314 314 310 310 312 314 317 315 315 316 314 321 330 336 345 344 342 340 339 339 338
310 310 310 308 311 311 312 316 320 320 320 319 321 325 324 325 323 320 324 319 319 317 316 318 316 316 313 312 313 315 317 319 318 316 314 324 331 344 344 340 339 338 337 337 338
311 311 311 309 311 312 311 314 317 323 321 323 324 324 325 324 326 320 321 319 319 318 318 320 318 318 318 318 318 318 318 314 316 318 321 331 333 335 341 339 338 336 334 334 337
311 311 311 310 310 309 310 315 316 318 320 323 325 326 325 323 325 320 319 319 320 319 319 319 322 322 321 321 320 314 314 314 315 316 323 331 333 334 337 336 334 333 331 332 336
311 311 311 310 309 315 317 317 322 320 323 328 328 327 324 322 323 322 320 319 320 320 318 320 321 323 322 322 319 316 314 314 313 313 314 318 329 335 334 333 332 330 329 331 332
310 311 311 310 311 311 322 320 314 321 334 330 330 329 327 323 322 320 320 319 320 322 323 325 326 323 322 319 317 317 313 314 313 311 311 311 310 322 333 333 330 327 327 329 330
310 311 311 311 309 310 310 314 318 328 336 331 329 328 325 325 324 321 319 320 320 321 323 325 327 322 320 318 317 314 312 310 308 306 307 309 311 312 337 335 330 327 325 328 328
310 312 310 312 315 318 312 316 322 330 328 332 333 331 330 325 326 321 321 320 321 323 324 326 325 325 318 317 315 311 309 310 313 311 311 311 311 310 328 332 330 327 326 326 326
311 313 317 315 312 311 317 320 327 326 327 332 332 331 331 330 328 325 323 322 321 321 322 325 326 321 320 318 314 311 310 311 314 311 312 314 326 332 330 329 327 326 325 325 324
311 314 317 321 319 313 319 324 326 326 332 334 332 330 329 329 326 330 330 329 322 322 324 324 323 318 317 316 313 314 311 308 311 313 313 316 335 333 330 328 327 327 326 325 324
312 315 320 322 313 315 319 324 325 325 330 330 333 333 330 327 326 324 330 329 325 322 319 319 318 317 316 316 315 313 312 310 307 315 316 315 330 335 334 331 327 328 325 323 321
313 318 323 318 316 315 316 322 325 326 327 332 332 331 330 328 325 325 326 323 318 315 313 314 313 316 316 315 315 312 311 311 308 310 311 312 312 324 332 329 330 325 325 323 322
309 315 319 314 321 319 322 324 324 325 328 329 330 332 331 327 326 323 324 320 317 316 317 317 312 315 317 318 317 313 311 312 315 315 314 315 316 317 329 328 321 320 325 324 322
310 316 322 323 325 322 320 322 322 325 327 327 328 328 327 325 326 324 323 316 318 318 318 316 313 314 313 311 315 319 321 318 313 312 315 315 316 318 324 325 322 320 322 324 323
313 322 319 320 318 319 320 321 319 319 325 324 326 324 324 322 319 321 321 318 318 319 330 320 316 313 314 315 316 316 316 317 317 316 316 316 316 319 324 324 320 319 317 319 323
316 317 318 319 317 318 319 321 319 318 321 321 322 323 322 321 322 321 322 319 316 326 318 311 313 318 318 318 318 318 319 318 318 318 319 318 317 319 318 322 320 319 317 315 320
315 318 317 318 317 318 318 320 318 317 321 323 322 323 321 322 322 322 321 320 318 316 317 313 316 317 318 320 320 320 320 319 317 318 316 316 319 321 320 317 317 314 317 316 316
310 312 315 318 317 316 318 319 318 316 317 320 322 320 321 321 321 319 320 318 320 317 316 314 315 317 317 320 321 321 323 323 324 322 325 327 324 321 322 321 320 320 318 315 315
Wind_Speed
22 19 18 17 16 15 14 13 13 13 13 14 14 14 15 17 19 14 9 20 7 20 9 6 12 12 7 3 4 4 3 3 7 1 6 10 9 7 8 19 7 2 10 22 35
21 20 17 17 16 15 14 13 12 12 13 13 13 14 14 15 16 15 27 20 15 11 15 10 6 7 3 5 3 4 4 8 6 3 7 10 5 6 4 10 8 11 15 28 37
21 20 19 16 15 15 14 12 11 11 12 12 12 12 12 11 5 8 12 5 19 13 20 13 6 6 4 2 5 4 6 7 10 5 6 6 9 3 7 6 17 19 19 18 27
22 20 19 17 16 14 13 12 11 10 11 10 10 9 9 3 5 3 4 13 22 14 14 5 3 6 5 6 6 4 10 15 11 11 4 6 4 6 6 8 12 23 22 16 15
22 20 19 17 16 14 12 11 10 10 9 9 8 5 1 0 11 15 7 12 20 18 15 6 5 7 5 6 1 6 13 9 15 10 7 5 3 6 5 9 15 18 19 17 15
23 21 19 17 16 14 11 10 9 9 8 7 5 3 1 4 10 9 14 17 18 21 12 10 8 8 4 7 7 6 11 15 9 14 5 5 3 8 5 14 14 10 7 6 8
26 23 19 17 16 14 12 9 9 8 8 7 3 2 3 16 4 8 19 21 22 25 8 20 18 4 3 5 9 6 7 8 11 8 8 6 4 7 6 15 17 15 14 16 13
28 25 21 18 16 14 12 9 8 8 8 7 3 4 8 7 7 14 17 14 19 22 22 19 16 6 5 5 7 2 3 4 7 7 5 11 8 6 8 20 15 16 15 17 15
30 26 23 19 16 14 11 9 6 4 5 3 5 4 10 9 10 23 20 12 20 21 22 19 5 7 3 3 5 5 3 3 6 7 4 4 6 6 11 19 13 10 13 13 13
32 30 25 20 17 15 10 7 1 2 6 5 5 3 7 5 9 23 29 28 6 5 6 5 3 2 3 4 5 4 3 6 8 9 7 5 7 10 11 17 13 11 11 13 12
36 32 27 22 17 14 4 0 2 1 5 10 7 6 7 8 12 12 26 14 6 4 7 1 2 6 11 7 5 5 7 14 13 6 6 9 8 13 9 16 12 10 11 11 11
40 36 29 23 16 11 4 3 7 3 8 18 16 13 16 3 3 7 23 7 6 7 3 4 7 12 7 8 8 7 6 7 6 8 8 9 7 6 7 8 12 14 11 11 9
44 39 29 23 17 9 10 23 8 9 3 9 9 9 9 11 9 12 12 8 4 5 6 7 13 11 11 12 8 3 6 5 4 5 8 7 4 5 4 9 9 8 8 9 10
47 40 29 23 7 3 9 12 11 4 2 6 5 7 6 7 6 17 19 7 4 9 4 6 14 10 6 3 4 4 5 6 7 5 2 2 4 1 1 6 9 11 9 9 10
49 42 26 14 10 5 6 15 23 4 3 5 4 11 7 6 5 6 20 4 11 9 4 8 4 6 4 6 5 4 3 6 5 4 2 1 5 6 6 7 11 9 11 11 9
50 41 29 11 13 23 15 15 3 4 5 4 3 6 5 7 10 11 7 1 5 6 4 9 3 4 6 4 7 5 7 9 5 4 2 5 4 3 11 14 11 10 10 12 11
52 45 23 12 6 7 11 2 5 3 5 5 5 6 4 5 11 8 10 8 7 3 3 0 8 6 4 7 4 8 7 4 4 4 5 5 2 8 17 13 18 17 13 12 11
51 40 12 20 12 18 0 5 3 5 7 3 4 5 3 6 6 18 10 12 5 5 3 3 0 3 2 7 7 5 8 5 4 3 4 7 4 6 10 12 14 16 15 11 11
48 16 8 4 17 7 5 3 7 5 3 3 5 5 5 11 12 4 4 7 9 8 8 5 3 1 6 4 7 2 3 6 6 1 3 3 2 3 7 13 12 14 13 13 12
33 12 7 4 20 9 5 4 4 2 1 4 4 2 13 8 9 7 9 21 16 7 8 7 4 1 2 6 4 6 4 3 3 3 3 4 4 5 5 12 12 18 18 14 11
7 4 4 15 17 5 4 7 7 8 7 6 4 2 6 2 8 3 14 13 2 4 9 5 5 3 5 3 7 4 1 5 5 5 5 2 6 5 17 18 15 13 12 14 13
9 3 7 23 3 1 3 5 7 5 4 5 4 4 10 7 5 7 6 2 6 3 5 2 5 4 4 2 4 5 8 6 5 4 2 4 5 6 14 14 9 14 19 17 16
4 3 9 4 2 3 5 4 4 3 2 4 6 8 9 8 7 10 12 3 4 4 7 5 2 3 7 7 6 5 3 4 5 3 5 5 5 4 6 13 11 15 15 16 14
3 4 4 4 1 2 4 4 3 2 3 2 4 5 1 6 4 5 12 10 3 5 7 8 4 7 7 5 3 1 4 2 5 4 4 6 5 3 5 10 9 15 16 16 17
0 2 2 3 4 4 3 3 4 4 3 5 3 4 4 3 7 3 3 3 7 4 5 5 4 3 3 1 2 4 2 6 2 6 4 6 8 6 10 10 17 20 16 16 17
3 4 5 4 5 6 4 3 4 4 5 2 5 2 5 3 1 3 3 4 2 1 3 2 4 3 1 3 3 4 6 8 6 5 1 4 5 4 9 7 8 11 16 19 19
9 6 0 5 7 5 6 3 7 5 4 7 4 3 5 3 4 5 4 1 6 6 3 4 6 3 4 3 2 4 2 4 5 6 1 4 4 10 6 12 13 15 16 13 19
Wind_Direction
340 332 326 320 316 308 300 292 283 280 281 289 295 302 311 315 312 295 240 250 237 225 219 154 204 219 218 235 198 138 66 231 241 90 255 305 350 344 54 122 118 171 138 155 147
339 335 328 323 319 310 303 296 288 283 281 284 293 303 316 319 313 264 279 259 213 197 191 182 197 148 166 208 212 139 171 232 183 259 292 298 343 323 76 115 109 96 123 148 135
338 336 331 325 320 311 306 299 290 284 281 286 297 307 319 325 316 249 316 223 178 186 197 205 196 141 189 168 210 200 222 246 274 263 247 285 326 20 110 120 152 147 142 153 144
336 333 332 328 321 315 309 302 294 287 285 291 296 307 312 342 276 309 0 153 171 180 185 186 131 150 204 205 203 224 228 236 262 256 276 274 283 24 93 196 162 150 158 156 158
337 332 331 330 322 316 313 305 301 295 292 294 292 299 343 76 250 244 285 169 173 184 198 175 162 171 188 203 92 202 248 244 245 257 237 282 255 140 91 129 147 152 155 162 166
342 334 329 327 323 317 311 307 305 303 298 287 278 264 141 261 267 275 231 181 187 188 199 174 203 194 212 211 168 213 230 250 256 250 243 232 178 110 278 128 128 117 121 129 160
346 340 331 325 322 318 310 305 302 297 291 283 247 154 255 238 225 287 195 196 192 191 177 209 222 138 162 277 241 251 267 272 246 224 227 164 284 138 181 89 96 93 84 75 73
349 343 336 327 320 318 314 305 296 289 285 279 183 165 246 275 232 210 195 215 209 209 211 210 217 199 184 235 342 353 156 191 272 167 236 131 239 159 113 100 101 102 92 83 69
353 345 339 330 319 312 317 312 302 298 288 212 159 186 264 324 198 210 207 213 202 219 231 249 267 186 54 61 1 6 250 243 293 212 130 111 148 119 122 106 102 96 91 87 76
351 347 340 331 323 310 315 305 243 101 100 128 269 290 266 250 180 198 213 218 182 207 294 225 61 55 32 85 220 236 278 268 228 239 149 132 157 131 134 114 119 107 98 88 79
351 345 338 332 324 314 336 66 73 164 226 196 197 220 300 243 214 187 208 198 206 157 182 250 111 213 226 209 210 243 287 256 238 218 118 169 139 151 137 112 114 111 106 99 92
351 345 336 330 322 309 276 210 208 18 295 225 227 252 264 0 296 230 190 160 156 208 142 22 237 228 230 235 235 270 235 354 359 18 88 144 146 124 126 121 133 131 123 118 108
351 344 336 328 316 283 228 241 226 321 280 285 192 215 232 158 213 218 160 189 183 200 185 181 239 221 219 239 186 91 82 37 43 346 54 100 34 125 106 116 119 114 118 109 114
350 341 333 331 307 298 250 297 353 269 12 271 202 251 181 189 215 193 189 151 185 223 179 217 254 236 129 75 113 88 126 81 49 64 173 99 219 148 196 112 125 133 127 118 102
347 338 328 317 290 231 235 311 332 144 331 250 239 218 190 156 167 210 185 112 221 239 133 244 355 175 129 158 111 151 99 101 126 88 26 14 104 253 144 164 171 163 140 121 120
343 334 325 298 229 255 284 311 345 55 255 284 250 194 138 199 216 178 172 210 223 207 219 206 223 218 154 128 113 124 50 30 57 108 91 247 142 258 190 198 171 174 138 133 128
338 332 299 223 220 116 3 31 47 166 281 341 352 2 5 188 206 151 192 203 215 135 297 18 148 275 134 104 32 77 60 3 359 13 212 253 102 230 216 191 176 159 151 146 134
335 332 300 240 235 263 44 65 155 253 263 235 3 4 15 19 291 176 210 218 240 126 115 146 57 195 204 153 161 164 140 150 202 202 259 310 266 287 306 148 146 152 150 148 135
336 331 283 297 208 174 85 107 192 217 271 343 355 17 300 359 345 93 48 291 226 166 152 141 200 55 83 114 125 161 96 177 120 28 75 261 305 348 16 115 135 146 152 159 158
331 323 271 159 153 144 78 210 223 281 68 58 162 227 235 353 338 24 114 266 255 185 142 183 114 79 168 60 34 126 160 42 14 157 201 281 246 211 217 166 152 163 171 165 163
324 342 322 155 141 56 162 217 222 254 252 148 141 217 211 161 270 276 173 263 127 101 94 123 102 271 82 165 174 33 31 75 119 137 163 220 266 218 191 188 181 169 164 170 177
341 336 96 149 80 144 181 207 222 290 88 103 122 154 305 176 312 342 335 332 102 139 89 76 121 130 202 296 197 176 200 136 128 233 175 160 268 292 190 187 150 165 182 186 183
297 265 7 274 62 347 307 296 207 150 165 135 167 169 220 276 247 231 281 329 104 94 156 180 48 61 350 355 5 58 93 117 99 70 195 145 261 346 164 169 189 171 180 184 182
293 337 338 32 344 81 6 288 359 305 162 130 150 129 30 305 260 169 154 205 174 132 108 93 121 148 185 192 163 179 322 301 150 133 203 200 226 251 189 177 180 188 184 183 181
224 328 15 343 328 328 208 258 311 337 76 30 43 108 129 6 334 15 61 113 15 10 66 100 129 132 157 207 186 182 273 313 221 226 179 235 197 7 321 205 190 191 195 187 187
26 10 341 294 298 317 351 336 72 13 94 32 85 44 98 96 238 346 344 74 187 309 72 4 180 130 148 235 255 305 298 288 289 357 318 69 109 42 292 6 11 289 210 195 192
341 332 9 289 328 13 336 1 19 27 359 155 170 103 81 178 229 241 237 122 148 146 136 135 128 99 238 207 330 329 73 68 111 47 326 73 338 330 317 44 34 18 357 255 202